Location: Mahannah Oil Field
(37.4664°N, 96.6003°W)
Time: 20:29:22
(UTC+00:00)

Transit 2A Rocket - Pass Details

Date: 25 January 2021
Orbit: 594 x 908 km, 66.7° (Epoch: 05 March)

Event Time Altitude Azimuth Distance (km) Brightness Sun altitude
Rises 04:00:29 0° 325° (NW) 2,872 - -50.9°
Reaches altitude 10° 04:02:50 10° 319° (NW) 1,945 - -51.3°
Maximum altitude 04:06:56 44° 247° (WSW) 825 - -52.1°
Drops below altitude 10° 04:11:01 10° 175° (S) 1,929 - -52.9°
Sets 04:13:21 0° 169° (S) 2,845 - -53.3°
